Overview Statistics Trail Chart Weather Telemetry Raw packets
 

This is the latest recevied weather packets stored in our database for station/object HB9FHL-13. If no packets are shown the sender has not sent any weather packets the latest 10 day(s).

<< 40 41 42 43 44 45 46 >>
Time Temp. Humidity Pressure Rain* Wind** Luminosity Snow
1788446573 23.89° C - 1024.2 hPa 0 mm - - -
1788446272 23.89° C - 1021.4 hPa 0 mm - - -
1788446004 25° C - 1022.6 hPa 0 mm - - -
1788445972 25° C - 1022.6 hPa 0 mm - - -
1788445720 23.33° C - 1023.1 hPa 0 mm - - -
1788445671 23.33° C - 1023.1 hPa 0 mm - - -
1788445371 23.89° C - 1024.5 hPa 0 mm - - -
1788445071 24.44° C - 1022.4 hPa 0 mm - - -
1788444770 23.89° C - 1026 hPa 0 mm - - -
1788444467 23.89° C - 1024.7 hPa 0 mm - - -
1788444165 23.89° C - 1025.9 hPa 0 mm - - -
1788443865 23.89° C - 1027.3 hPa 0 mm - - -
1788443564 23.33° C - 1025.3 hPa 0 mm - - -
1788443264 24.44° C - 1021 hPa 0 mm - - -
1788442963 23.89° C - 1025.1 hPa 0 mm - - -
1788442733 23.33° C - 1021.3 hPa 0 mm - - -
1788442663 23.33° C - 1021.3 hPa 0 mm - - -
1788442362 22.78° C - 1023.2 hPa 0 mm - - -
1788442062 23.33° C - 1019.3 hPa 0 mm - - -
1788441761 23.33° C - 1019.1 hPa 0 mm - - -
1788441460 23.89° C - 1025 hPa 0 mm - - -
1788440558 23.89° C - 1019.2 hPa 0 mm - - -
1788440258 23.89° C - 1024.1 hPa 0 mm - - -
1788439957 23.33° C - 1022.6 hPa 0 mm - - -
1788439657 22.78° C - 1019.2 hPa 0 mm - - -

* Rain since midnight (hover to see other rain measurements)
** Current wind speed in m/s (hover to see current wind gust speed)